NOAA 16 DEB, 41493

Orbit data source: Space-Track

NOAA 16 DEB, 41493 is space debris in SSO originally from a launch on Thu, 21 Sep 2000 UTC launched from the Air Force Western Test Range (AFWTR). Debris objects in space refer to the collection of defunct objects orbiting the Earth. Examples of debris include non-operational satellites, rocket bodies, and fragments generated from explosions, collisions, or faulty payload assembly.

Loading next visibility...
Identifier
41493, 2000-055LR
Orbit
SSO
Country
Flag of USUS
Related business
Manufacturer
Unknown
Mission
Spacecraft
Bus & Motor
Unknown
Mass
Unknown
Launch date (UTC)
2000-09-21 (26 years ago)
Launch vehicle
Unknown
Launch site
Air Force Western Test Range (AFWTR)
Object type
Payload
Rocket body
Debris
Shape & HBR
Unknown shape, 0.050 m
Radar Cross Section
Medium (>0.1 m² and <1 m²)

Expand to show TLE details & history
Last TLE update: 12 hours ago

TLE from 12 hours ago
0 NOAA 16 DEB
1 41493U 00055LR  26266.95344968  .00005852  00000-0  13559-2 0  9996
2 41493  98.9195  86.5140 0022338 168.6187 191.5518 14.55331795547585
Epoch: 2026-09-23T22:52Z
TLE epoch observation values (Epoch: 2026-09-23T22:52:58.052Z)
Latitude
-0.00001°
Longitude
100.47494°
Altitude
726.757 km
Speed
7.484 km/s
True Right ascension
05h 46m 03s
True Declination
0° 00' 00"
Sunlit
Object was in daylight at epoch
Visualization orbit readout
Latitude
Unknown
Longitude
Unknown
Altitude
Unknown
Speed
Unknown
Apparent Right ascension
Unknown
Apparent Declination
Unknown
Sunlit
N/A
Visualization observer readout
Local Sidereal Time
04:32:16
Azimuth
Unknown
Elevation
Unknown
Doppler factor
Unknown
Orbital elements
Apogee altitude
721.233 km
Perigee altitude
689.586 km
Semi-major axis
7,083.546 km
Eccentricity
0.00223
Inclination
98.9195°
RAAN
86.514°
Arg. of periapsis
168.6187°
True anomaly
191.50068°
Mean anomaly
191.5518°
Eccentric anomaly
191.52623°
Mean motion
3.64055 °/min
Orbital period
98.89 mins
BSTAR
0.0013559
Loading maneuver chart data...
Computing Atmospheric mass density...
Loading historical data...
Loading historical data...
Loading historical data...
Loading historical data...
Loading historical data...
Loading historical data...
Loading historical data...

Documentation

Showing up to 5 results
|